Flag for U.S.A. Weather past 2 weeks in Memphis, Tennessee, U.S.A.

Now
80 °F

Partly cloudy.


Feels Like: 82 °F
Forecast: 70 / 89 °F
Wind: 5 mph from Southeast

Location: Memphis International Airport

Current Time: Aug 30, 2015 at 8:32:48 PM

Latest Report: Aug 30, 2015 at 7:54 PM


Visibility: 10 mi

Pressure: 30.01 "Hg

Humidity: 64%

Dew point: 67 °F

Location of MemphisLocation

Historic Weather in Memphis — Graph

°F

Memphis temperature yesterday

Maximum temperature yesterday: 93 °F (at 3:54 PM)
Minimum temperature yesterday: 72 °F (at 5:54 AM)
Average temperature yesterday: 83 °F

Past Weeks' High & Low Weather Summary

 TemperatureHumidityPressure
High93 °F (Aug 29, 3:54 PM)94% (Aug 18, 7:57 AM)30.14 "Hg (Aug 18, 7:57 AM)
Low62 °F (Aug 25, 5:54 AM)33% (Aug 25, 11:54 AM)29.80 "Hg (Aug 18, 6:54 PM)
Average78 °F66%30.02 "Hg
* Reported Aug 15 6:54 PM — Aug 30 6:54 PM, Memphis, Weather by CustomWeather, © 2015

Note: Actual official high and low records may vary slightly from our data, if they occured in-between our weather recording intervals... More about our weather records

Advertising

Memphis weather history for previous 24 hours

 ConditionsComfort  
Time TempWeatherWind HumidityBarometerVisibility
6:54 PM
Sun, Aug 30
82 °FBroken clouds.8 mph65%30.00 "Hg10 mi
5:54 PM85 °FBroken clouds.12 mph55%29.98 "Hg10 mi
4:54 PM89 °FBroken clouds.3 mph45%29.98 "Hg10 mi
3:54 PM91 °FBroken clouds.6 mph45%29.98 "Hg10 mi
2:54 PM90 °FBroken clouds.6 mph45%30.01 "Hg10 mi
1:54 PM89 °FPartly sunny.7 mph42%30.03 "Hg10 mi
12:54 PM83 °FPartly sunny.5 mph70%30.05 "Hg10 mi
11:54 AM80 °FPartly sunny.No wind71%30.07 "Hg10 mi
10:54 AM79 °FMostly cloudy.3 mph74%30.07 "Hg10 mi
9:54 AM76 °FOvercast.3 mph80%30.06 "Hg10 mi
8:54 AM75 °FMostly cloudy.6 mph74%30.05 "Hg10 mi
7:58 AM75 °FMostly cloudy.No wind78%30.05 "Hg10 mi
6:54 AM75 °FThunderstorms. More clouds than sun.No wind82%30.03 "Hg10 mi
6:04 AM73 °FThunderstorms. Mostly cloudy.3 mph89%30.03 "Hg10 mi
4:54 AM75 °FMostly cloudy.3 mph82%30.00 "Hg10 mi
3:54 AM77 °FMostly cloudy.8 mph77%30.00 "Hg10 mi
2:54 AM77 °FMostly cloudy.6 mph77%29.99 "Hg10 mi
1:54 AM78 °FOvercast.9 mph76%30.01 "Hg10 mi
12:54 AM79 °FOvercast.10 mph74%30.02 "Hg10 mi
11:54 PM
Sat, Aug 29
81 °FMostly cloudy.12 mph69%30.01 "Hg10 mi
10:54 PM82 °FMostly cloudy.10 mph65%30.01 "Hg10 mi
9:54 PM83 °FPassing clouds.8 mph61%30.01 "Hg10 mi
8:54 PM83 °FPassing clouds.9 mph61%30.00 "Hg10 mi
Weather by CustomWeather, © 2015

See weather overviewHow to use our weather pages